EW9926 Weather Reports


time (UTC)temp
F
wind
direction
speed
knots
gust
knots
rain 1hr
in
rain 24hr
in
rain mn
in
humidity
%
barometer
mb
20260506202045 62 233 0.9 2.6 0.00 0.22 0.22 88 1006.2
20260506201545 62 250 0.9 3.5 0.00 0.22 0.22 88 1006.2
20260506201047 62 241 0.9 3.5 0.00 0.22 0.22 88 1006.2
20260506200543 61 238 0.9 3.5 0.00 0.22 0.22 88 1006.3
20260506200112 61 233 0.9 2.6 0.00 0.22 0.22 89 1006.3
20260506195543 61 255 0.9 3.5 0.00 0.22 0.22 89 1006.4
20260506195044 61 237 1.7 3.5 0.00 0.22 0.22 89 1006.4
20260506194543 61 259 1.7 3.5 0.00 0.22 0.22 90 1006.4
20260506194043 61 262 0.9 3.5 0.00 0.22 0.22 90 1006.5
20260506193542 61 238 0.9 3.5 0.00 0.22 0.22 90 1006.5
20260506193042 60 255 0.9 2.6 0.00 0.22 0.22 91 1006.6
20260506192540 60 255 0.9 2.6 0.00 0.22 0.22 91 1006.6
20260506192039 60 222 0.9 2.6 0.01 0.22 0.22 91 1006.7
20260506191539 60 243 0.9 4.3 0.01 0.22 0.22 91 1006.8
20260506191038 60 243 0.9 4.3 0.01 0.22 0.22 90 1006.9
20260506190538 60 252 0.9 3.5 0.01 0.22 0.22 91 1006.8
20260506190038 60 234 1.7 3.5 0.01 0.22 0.22 90 1006.8
20260506185538 60 253 1.7 3.5 0.01 0.22 0.22 90 1006.9
20260506185039 60 242 0.9 3.5 0.01 0.22 0.22 90 1007.0
20260506184536 60 232 1.7 3.5 0.01 0.22 0.22 90 1007.1
20260506184037 60 255 1.7 3.5 0.01 0.22 0.22 89 1007.0
20260506183536 60 263 0.9 3.5 0.01 0.22 0.22 90 1007.1
20260506183036 60 250 0.9 3.5 0.01 0.22 0.22 89 1007.0
20260506182535 60 249 0.9 4.3 0.00 0.21 0.21 89 1007.0
20260506182035 60 244 0.9 4.3 0.00 0.21 0.21 89 1007.0
20260506181538 60 265 0.9 3.5 0.00 0.21 0.21 88 1007.0
20260506181035 60 238 0.9 3.5 0.00 0.21 0.21 88 1007.1
20260506180535 60 233 1.7 3.5 0.00 0.21 0.21 88 1007.2
20260506180045 60 250 0.9 4.3 0.00 0.21 0.21 88 1007.1
20260506175535 60 273 1.7 5.2 0.00 0.21 0.21 88 1007.2
20260506175034 60 239 0.9 5.2 0.00 0.21 0.21 88 1007.2
20260506174534 60 231 0.9 3.5 0.00 0.21 0.21 89 1007.2
20260506174034 60 228 0.9 3.5 0.01 0.21 0.21 89 1007.2
20260506173534 60 232 0.9 3.5 0.01 0.21 0.21 89 1007.3
20260506173035 60 224 0.0 2.6 0.02 0.21 0.21 89 1007.3
20260506172534 60 224 0.9 5.2 0.02 0.21 0.21 89 1007.4
20260506172034 60 237 1.7 5.2 0.03 0.21 0.21 89 1007.5
20260506171547 60 101 0.9 3.5 0.03 0.21 0.21 89 1007.5
20260506171034 61 231 0.9 3.5 0.03 0.21 0.21 89 1007.4
20260506170534 61 238 0.9 7.0 0.04 0.21 0.21 89 1007.4
20260506170036 61 170 0.9 7.0 0.04 0.21 0.21 89 1007.4
20260506165533 61 243 0.9 8.7 0.05 0.21 0.21 90 1007.3
20260506165033 61 153 1.7 13.0 0.07 0.21 0.21 90 1007.1
20260506164533 60 169 3.5 13.0 0.08 0.21 0.21 90 1007.2
20260506164032 60 222 1.7 7.8 0.09 0.20 0.20 90 1007.0
20260506163531 60 149 2.6 9.6 0.11 0.20 0.20 90 1007.1
20260506163036 60 134 2.6 11.3 0.11 0.19 0.19 89 1007.0
20260506162532 60 152 1.7 11.3 0.12 0.19 0.19 89 1007.4
20260506162028 60 189 2.6 7.8 0.12 0.18 0.18 90 1007.7
20260506161539 60 182 0.9 4.3 0.12 0.18 0.18 90 1008.1
20260506161026 60 79 0.0 4.3 0.13 0.18 0.18 89 1008.3
20260506160529 60 128 0.0 4.3 0.12 0.17 0.17 89 1008.4
20260506160026 60 226 0.9 3.5 0.11 0.16 0.16 89 1008.5
20260506155525 60 199 0.9 3.5 0.10 0.15 0.15 88 1008.6
20260506155025 60 239 0.0 1.7 0.10 0.14 0.14 88 1008.6
20260506154524 60 239 0.9 2.6 0.10 0.13 0.13 88 1008.5
20260506154023 61 239 0.9 2.6 0.08 0.10 0.10 87 1008.6
20260506153522 61 143 0.0 2.6 0.08 0.09 0.09 87 1008.8
20260506153021 61 222 0.9 4.3 0.06 0.07 0.07 87 1008.8
20260506152520 61 222 0.9 4.3 0.07 0.07 0.07 87 1008.7
20260506152020 61 209 0.0 2.6 0.06 0.06 0.06 87 1008.8
20260506151520 61 209 0.0 2.6 0.06 0.06 0.06 86 1008.6
20260506151020 62 209 0.0 1.7 0.05 0.05 0.05 86 1008.7
20260506150518 61 152 0.0 1.7 0.05 0.05 0.05 86 1008.4
20260506150024 62 152 0.0 2.6 0.05 0.05 0.05 85 1008.4
20260506145517 62 171 0.0 2.6 0.04 0.04 0.04 85 1008.4
20260506145017 62 143 0.0 2.6 0.04 0.04 0.04 84 1008.5
20260506144515 62 169 0.9 2.6 0.03 0.03 0.03 83 1008.6
20260506144014 63 206 0.9 2.6 0.02 0.02 0.02 81 1008.6
20260506143514 63 158 0.0 2.6 0.01 0.01 0.01 80 1008.7
20260506143013 64 238 0.0 3.5 0.01 0.01 0.01 78 1008.8
20260506142512 64 238 0.9 3.5 0.00 0.00 0.00 77 1008.8
20260506142012 65 225 0.9 3.5 0.00 0.00 0.00 75 1008.8
20260506141512 65 269 0.9 3.5 0.00 0.00 0.00 74 1008.7
20260506141011 66 226 1.7 3.5 0.00 0.00 0.00 73 1008.6
20260506140511 66 248 1.7 2.6 0.00 0.00 0.00 73 1008.5
20260506140011 66 161 0.0 5.2 0.00 0.00 0.00 74 1008.4
20260506135510 66 227 0.9 5.2 0.00 0.00 0.00 73 1008.2
20260506135015 65 174 1.7 3.5 0.00 0.00 0.00 75 1008.3
20260506134521 65 203 1.7 3.5 0.00 0.00 0.00 74 1008.4
20260506134011 65 245 0.9 3.5 0.00 0.00 0.00 74 1008.6
20260506133511 64 242 1.7 7.8 0.00 0.00 0.00 74 1008.5
20260506133011 65 249 1.7 7.8 0.00 0.00 0.00 74 1008.6
20260506132509 65 43 0.0 2.6 0.00 0.00 0.00 75 1008.5
20260506132009 65 255 0.9 2.6 0.00 0.00 0.00 74 1008.6
20260506131511 65 257 0.9 4.3 0.00 0.00 0.00 74 1008.6
20260506131009 65 264 1.7 4.3 0.00 0.00 0.00 74 1008.7
20260506130509 65 242 1.7 3.5 0.00 0.00 0.00 74 1008.8
20260506130009 65 282 0.9 2.6 0.00 0.00 0.00 74 1008.8
20260506125509 65 237 0.9 4.3 0.00 0.00 0.00 74 1008.7
20260506125007 64 237 1.7 4.3 0.00 0.00 0.00 76 1008.8
20260506124512 64 222 0.9 3.5 0.00 0.00 0.00 75 1008.7
20260506124007 64 234 0.9 2.6 0.00 0.00 0.00 75 1008.7
20260506123507 64 225 0.9 3.5 0.00 0.00 0.00 75 1008.7
20260506123007 64 241 0.9 3.5 0.00 0.00 0.00 75 1008.6
20260506122508 64 168 0.9 2.6 0.00 0.00 0.00 75 1008.5
20260506122007 64 218 0.9 7.8 0.00 0.00 0.00 75 1008.5
20260506121509 64 137 1.7 7.8 0.00 0.00 0.00 75 1008.6
20260506121005 64 189 1.7 6.1 0.00 0.00 0.00 75 1008.5
20260506120505 64 164 0.9 6.1 0.00 0.00 0.00 76 1008.6
20260506120010 63 222 0.9 4.3 0.00 0.00 0.00 76 1008.5
20260506115505 63 149 0.9 4.3 0.00 0.00 0.00 76 1008.5
20260506115004 63 205 0.9 6.1 0.00 0.00 0.00 76 1008.6
20260506114506 63 143 0.9 10.4 0.00 0.00 0.00 76 1008.6
20260506114005 63 194 2.6 10.4 0.00 0.00 0.00 76 1008.5
20260506113504 63 162 0.9 6.1 0.00 0.00 0.00 76 1008.4
20260506113006 63 180 0.9 7.0 0.00 0.00 0.00 76 1008.4
20260506112503 63 218 1.7 7.0 0.00 0.00 0.00 76 1008.6
20260506112004 63 217 0.9 6.1 0.00 0.00 0.00 76 1008.7
20260506111503 63 232 0.9 7.0 0.00 0.00 0.00 76 1008.6
20260506111002 63 220 0.9 7.0 0.00 0.00 0.00 76 1008.4
20260506110502 63 191 0.9 8.7 0.00 0.00 0.00 76 1008.3
20260506110009 63 162 1.7 8.7 0.00 0.00 0.00 76 1008.2
20260506105502 63 208 4.3 8.7 0.00 0.00 0.00 76 1008.4
20260506105002 63 239 2.6 8.7 0.00 0.00 0.00 77 1008.3
20260506104501 63 153 0.0 8.7 0.00 0.00 0.00 77 1008.2
20260506104001 63 161 1.7 7.0 0.00 0.00 0.00 77 1008.1
20260506103502 63 73 0.9 7.0 0.00 0.00 0.00 77 1008.1
20260506103002 63 213 0.9 7.0 0.00 0.00 0.00 76 1008.1
20260506102601 63 127 2.6 7.8 0.00 0.00 0.00 76 1008.0
20260506102101 63 149 0.0 6.1 0.00 0.00 0.00 76 1008.1
20260506101601 63 135 1.7 7.0 0.00 0.00 0.00 76 1008.1
20260506101059 63 152 2.6 7.0 0.00 0.00 0.00 76 1008.2
20260506100601 63 177 1.7 7.0 0.00 0.00 0.00 77 1008.2
20260506100104 63 151 1.7 7.0 0.00 0.00 0.00 77 1008.3
20260506095559 63 155 0.9 7.0 0.00 0.00 0.00 77 1008.4
20260506095059 63 142 0.9 5.2 0.00 0.00 0.00 77 1008.3
20260506094558 63 162 0.9 5.2 0.00 0.00 0.00 77 1008.2
20260506094057 63 163 0.9 6.1 0.00 0.00 0.00 77 1008.2
20260506093601 63 155 0.9 7.0 0.00 0.00 0.00 76 1008.2
20260506093100 63 169 0.9 7.0 0.00 0.00 0.00 76 1008.2
20260506092557 63 158 0.9 4.3 0.00 0.00 0.00 76 1008.2
20260506092058 63 237 1.7 7.0 0.00 0.00 0.00 76 1008.2
20260506091555 63 185 2.6 7.0 0.00 0.00 0.00 76 1008.2
20260506091055 63 173 0.9 3.5 0.00 0.00 0.00 76 1008.2
20260506090553 63 177 0.9 7.8 0.00 0.00 0.00 77 1008.3
20260506090054 63 132 0.9 7.8 0.00 0.00 0.00 76 1008.3
20260506085553 63 151 0.0 7.0 0.00 0.00 0.00 76 1008.3
20260506085053 63 139 0.9 4.3 0.00 0.00 0.00 76 1008.4
20260506084553 63 139 0.0 5.2 0.00 0.00 0.00 76 1008.4
20260506084055 64 151 0.0 6.1 0.00 0.00 0.00 76 1008.4
20260506083553 64 163 0.9 6.1 0.00 0.00 0.00 75 1008.3
20260506083109 64 153 0.9 4.3 0.00 0.00 0.00 75 1008.3
20260506082550 64 146 0.9 4.3 0.00 0.00 0.00 75 1008.3
20260506082052 64 133 0.9 3.5 0.00 0.00 0.00 75 1008.4
20260506081552 64 176 0.9 3.5 0.00 0.00 0.00 75 1008.4
20260506081049 64 176 0.9 9.6 0.00 0.00 0.00 74 1008.4
20260506080549 64 97 1.7 9.6 0.00 0.00 0.00 74 1008.4
20260506073044 65 137 1.7 6.1 0.00 0.01 0.00 71 1008.4
20260506072544 65 157 0.9 9.6 0.00 0.01 0.00 71 1008.4
20260506072043 65 171 1.7 9.6 0.00 0.01 0.00 71 1008.5
20260506071545 65 225 0.9 6.1 0.00 0.01 0.00 70 1008.5
20260506071041 66 195 1.7 8.7 0.00 0.01 0.00 70 1008.5
20260506070541 66 151 0.9 8.7 0.00 0.01 0.00 70 1008.6
20260506062037 66 212 0.9 6.1 0.00 0.01 0.00 67 1009.0
20260506061540 66 183 1.7 6.1 0.00 0.01 0.00 67 1009.1
20260506061036 66 157 0.9 6.1 0.00 0.01 0.00 67 1009.0
20260506060535 66 272 0.9 7.8 0.00 0.01 0.00 66 1009.0
20260506051030 67 153 0.9 12.2 0.00 0.01 0.00 64 1009.5
20260506050530 67 174 0.9 12.2 0.00 0.01 0.00 64 1009.5
20260506045030 67 182 1.7 3.5 0.00 0.01 0.00 63 1009.6
20260506044529 67 221 1.7 4.3 0.00 0.01 0.00 63 1009.5
20260506044129 67 135 0.9 3.5 0.00 0.01 0.00 63 1009.6
20260506043528 67 243 0.9 7.8 0.00 0.01 0.00 63 1009.7
20260506043027 67 222 1.7 7.8 0.00 0.01 0.00 63 1009.6
20260506042528 67 177 0.9 8.7 0.00 0.01 0.00 64 1009.6
20260506042028 66 178 0.9 8.7 0.00 0.01 0.00 63 1009.5
20260506041527 66 149 0.9 6.1 0.00 0.01 0.00 63 1009.4
20260506041026 66 204 0.9 4.3 0.00 0.01 0.00 63 1009.6
20260506040525 66 171 0.9 5.2 0.00 0.01 0.00 64 1009.6
20260506040027 67 162 1.7 7.0 0.00 0.01 0.00 63 1009.6
20260506035526 67 156 0.0 7.0 0.00 0.01 0.01 63 1009.6
20260506035024 67 145 0.9 7.0 0.00 0.01 0.01 63 1009.6
20260506034523 67 188 0.9 7.0 0.00 0.01 0.01 63 1009.6
20260506034023 67 155 0.9 7.8 0.00 0.01 0.01 63 1009.6
20260506033526 67 201 0.9 7.8 0.00 0.01 0.01 63 1009.4
20260506033023 67 197 0.9 7.0 0.00 0.01 0.01 63 1009.4
20260506032525 67 158 0.9 7.8 0.00 0.01 0.01 62 1009.4
20260506032023 67 123 2.6 7.8 0.00 0.01 0.01 62 1009.4
20260506031528 68 156 0.9 7.8 0.00 0.01 0.01 61 1009.4
20260506031025 68 197 1.7 7.8 0.00 0.01 0.01 61 1009.4
20260506030521 68 157 2.6 7.8 0.00 0.01 0.01 61 1009.3
20260506030022 68 116 3.5 7.8 0.00 0.01 0.01 60 1009.4
20260506025524 68 145 0.9 6.1 0.00 0.01 0.01 59 1009.3
20260506025021 68 147 2.6 6.1 0.00 0.01 0.01 59 1009.4
20260506024535 69 151 2.6 12.2 0.00 0.01 0.01 58 1009.4
20260506024021 69 157 2.6 11.3 0.00 0.01 0.01 57 1009.4
20260506023522 69 139 2.6 6.1 0.00 0.01 0.01 56 1009.5
20260506023022 69 204 1.7 7.8 0.00 0.01 0.01 55 1009.5
20260506022525 69 234 2.6 7.8 0.00 0.01 0.01 55 1009.4
20260506022021 70 172 2.6 10.4 0.00 0.01 0.01 54 1009.4
20260506021521 70 203 3.5 11.3 0.00 0.01 0.01 53 1009.4
20260506021020 70 150 2.6 8.7 0.00 0.01 0.01 51 1009.4
20260506020521 71 132 2.6 10.4 0.00 0.01 0.01 50 1009.3
20260506020021 71 131 3.5 10.4 0.00 0.01 0.01 50 1009.3
20260506015520 71 188 1.7 9.6 0.00 0.01 0.01 49 1009.3
20260506015020 72 205 1.7 11.3 0.00 0.01 0.01 48 1009.3
20260506014522 72 130 1.7 11.3 0.00 0.01 0.01 48 1009.3
20260506014019 72 161 2.6 7.8 0.00 0.01 0.01 47 1009.3
20260506013519 72 160 2.6 9.6 0.00 0.01 0.01 47 1009.1
20260506013020 72 183 2.6 11.3 0.00 0.01 0.01 47 1009.1
20260506012519 72 163 2.6 13.0 0.00 0.01 0.01 46 1009.1
20260506012021 73 145 1.7 6.1 0.00 0.01 0.01 47 1009.1
20260506011546 73 188 1.7 8.7 0.00 0.01 0.01 46 1009.1
20260506011018 73 148 1.7 9.6 0.00 0.01 0.01 46 1009.0
20260506010518 73 199 0.9 9.6 0.00 0.01 0.01 46 1008.9
20260506010019 73 161 2.6 8.7 0.00 0.01 0.01 45 1008.9
20260506005519 73 188 2.6 8.7 0.00 0.01 0.01 45 1008.8
20260506005017 73 160 1.7 6.1 0.00 0.01 0.01 46 1008.8
20260506004518 73 212 1.7 7.0 0.00 0.01 0.01 46 1008.8
20260506004017 73 200 1.7 7.0 0.00 0.01 0.01 46 1008.7
20260506003518 73 155 0.9 5.2 0.00 0.01 0.01 47 1008.7
20260506003019 73 172 1.7 7.0 0.00 0.01 0.01 47 1008.6
20260506002519 73 147 1.7 7.0 0.00 0.01 0.01 47 1008.5
20260506002017 74 155 0.9 6.1 0.00 0.01 0.01 47 1008.4
20260506001517 74 149 1.7 14.8 0.00 0.01 0.01 46 1008.5
20260506001018 74 163 2.6 14.8 0.00 0.01 0.01 46 1008.3
20260506000521 74 142 1.7 7.0 0.00 0.01 0.01 46 1008.4
20260506000026 74 164 0.9 7.8 0.00 0.01 0.01 46 1008.3
20260505235516 75 178 1.7 7.8 0.00 0.01 0.01 45 1008.3
20260505235016 75 145 1.7 7.0 0.00 0.01 0.01 44 1008.2
20260505234534 75 157 0.9 3.5 0.00 0.01 0.01 43 1008.2
20260505234016 75 172 1.7 6.1 0.00 0.01 0.01 42 1008.1
20260505233515 75 185 0.9 6.1 0.00 0.01 0.01 41 1008.1
20260505233016 75 158 0.9 6.1 0.00 0.01 0.01 41 1008.1
20260505232517 75 248 1.7 6.1 0.00 0.01 0.01 41 1008.2
20260505232015 76 159 0.9 3.5 0.00 0.01 0.01 40 1008.1
20260505231516 76 235 0.9 4.3 0.00 0.01 0.01 40 1008.0
20260505231014 76 237 1.7 4.3 0.00 0.01 0.01 39 1008.0
20260505230514 76 214 0.9 4.3 0.00 0.01 0.01 39 1008.0
20260505230028 76 235 1.7 4.3 0.00 0.01 0.01 39 1008.0
20260505225518 76 164 2.6 4.3 0.00 0.01 0.01 39 1007.9
20260505225014 77 230 0.9 5.2 0.00 0.01 0.01 39 1007.9
20260505224523 77 225 0.9 5.2 0.00 0.01 0.01 39 1007.8
20260505224013 77 242 1.7 4.3 0.00 0.01 0.01 38 1007.8
20260505223513 77 238 1.7 4.3 0.00 0.01 0.01 38 1007.8
20260505223021 77 228 1.7 7.8 0.00 0.01 0.01 38 1007.8
20260505222517 77 236 0.9 7.8 0.00 0.01 0.01 37 1007.8
20260505222014 77 234 1.7 7.0 0.00 0.01 0.01 38 1007.7
20260505221514 77 240 1.7 4.3 0.00 0.01 0.01 37 1007.8
20260505221012 77 228 1.7 6.1 0.00 0.01 0.01 38 1007.9
20260505220512 77 220 1.7 6.1 0.00 0.01 0.01 36 1007.7
20260505220012 77 224 1.7 4.3 0.00 0.01 0.01 38 1007.7
20260505215512 77 190 0.9 4.3 0.00 0.01 0.01 38 1007.8
20260505215012 77 242 0.9 3.5 0.00 0.01 0.01 36 1007.8
20260505214517 78 242 1.7 6.1 0.00 0.01 0.01 37 1007.8
20260505214012 78 266 2.6 6.1 0.00 0.01 0.01 35 1007.6
20260505213511 78 246 0.9 3.5 0.00 0.01 0.01 37 1007.6
20260505213011 78 260 1.7 4.3 0.00 0.01 0.01 36 1007.5
20260505212511 78 236 1.7 7.8 0.00 0.01 0.01 35 1007.6
20260505212013 78 268 2.6 7.8 0.00 0.01 0.01 35 1007.3
20260505211521 77 244 3.5 6.1 0.00 0.01 0.01 34 1007.5
20260505211010 77 284 2.6 7.0 0.00 0.01 0.01 34 1007.3
20260505210510 78 269 1.7 5.2 0.00 0.01 0.01 34 1007.5
20260505210010 78 258 2.6 6.1 0.00 0.01 0.01 33 1007.5
20260505205510 78 248 3.5 7.8 0.00 0.01 0.01 34 1007.6
20260505205009 79 227 4.3 7.8 0.00 0.01 0.01 33 1007.5
20260505204509 79 265 3.5 7.8 0.00 0.01 0.01 33 1007.5
20260505204009 79 257 4.3 9.6 0.00 0.01 0.01 33 1007.6
20260505203509 79 230 3.5 9.6 0.00 0.01 0.01 33 1007.6
20260505203010 79 232 2.6 5.2 0.00 0.01 0.01 37 1007.6
20260505202509 79 220 1.7 6.1 0.00 0.01 0.01 36 1007.6